This is the latest recevied weather packets stored in our database for station/object KC1BRV. If no packets are shown the sender has not sent any weather packets the latest 10 day(s).
| Time | Temp. | Humidity | Pressure | Rain* | Wind** | Luminosity | Snow |
|---|---|---|---|---|---|---|---|
| 1777729521 | 12.78° C | 73% | 1013.2 hPa | 0 mm | - | 349 W/m² | - |
| 1777729219 | 12.22° C | 75% | 1013.2 hPa | 0 mm | - | 225 W/m² | - |
| 1777728915 | 11.11° C | 77% | 1013.2 hPa | 0 mm | - | 226 W/m² | - |
| 1777728612 | 11.11° C | 77% | 1013.3 hPa | 0 mm | - | 220 W/m² | - |
| 1777728309 | 11.11° C | 76% | 1013.3 hPa | 0 mm | - | 205 W/m² | - |
| 1777728006 | 11.67° C | 76% | 1013.4 hPa | 0 mm | - | 189 W/m² | - |
| 1777727703 | 11.11° C | 79% | 1013.4 hPa | 0 mm | - | 171 W/m² | - |
| 1777727400 | 10.56° C | 81% | 1013.4 hPa | 0 mm | - | 335 W/m² | - |
| 1777727097 | 10.56° C | 81% | 1013.6 hPa | 0 mm | - | 123 W/m² | - |
| 1777726795 | 10.56° C | 80% | 1013.6 hPa | 0 mm | - | 57 W/m² | - |
| 1777726492 | 10.56° C | 80% | 1013.9 hPa | 0 mm | - | 57 W/m² | - |
| 1777726189 | 10.56° C | 80% | 1014.1 hPa | 0 mm | - | 58 W/m² | - |
| 1777725885 | 10.56° C | 81% | 1013.9 hPa | 0 mm | - | 103 W/m² | - |
| 1777725583 | 10.56° C | 81% | 1013.8 hPa | 0 mm | - | 161 W/m² | - |
| 1777725280 | 10° C | 82% | 1013.5 hPa | 0 mm | - | 118 W/m² | - |
| 1777724977 | 10° C | 82% | 1013.5 hPa | 0 mm | - | 144 W/m² | - |
| 1777724673 | 9.44° C | 83% | 1013.8 hPa | 0 mm | - | 110 W/m² | - |
| 1777724372 | 9.44° C | 83% | 1013.7 hPa | 0 mm | - | 35 W/m² | - |
| 1777724068 | 9.44° C | 83% | 1013.7 hPa | 0 mm | - | 48 W/m² | - |
| 1777723766 | 9.44° C | 84% | 1013.6 hPa | 0 mm | - | 67 W/m² | - |
| 1777723462 | 9.44° C | 84% | 1013.2 hPa | 0 mm | - | 70 W/m² | - |
| 1777723159 | 9.44° C | 83% | 1013.3 hPa | 0 mm | - | 45 W/m² | - |
| 1777722856 | 9.44° C | 82% | 1013.5 hPa | 0 mm | - | 53 W/m² | - |
| 1777722552 | 9.44° C | 83% | 1013.4 hPa | 0 mm | - | 52 W/m² | - |
| 1777722249 | 8.89° C | 84% | 1013.2 hPa | 0 mm | - | 93 W/m² | - |
* Rain latest hour (hover to see other rain measurements)
** Current wind speed in m/s (hover to see current wind gust speed)